TFS218 KBNA-KHOU

Flight info

Callsign TFS218
Flight time N/A
Altitude 34000
Route DRURY4 JALAR SQS SWEUP WAPPL7
Aircraft A321/M-SDE3FGHIRWY/LB1

Departure

Time 2026-05-04 23:25
Airport Nashville International Airport (KBNA)

Arrival

Time N/A
Airport William P. Hobby Airport (KHOU)
Time Latitude Longitude Altitude Speed Heading
2026-05-04 23:07 36.12574 -86.67046 569 ft 0 kts 252°
2026-05-04 23:16 36.12576 -86.67038 571 ft 4 kts 251°
2026-05-04 23:16 36.12585 -86.67007 571 ft 4 kts 247°
2026-05-04 23:16 36.12596 -86.66976 574 ft 4 kts 246°
2026-05-04 23:16 36.12604 -86.66953 571 ft 4 kts 241°
2026-05-04 23:17 36.12620 -86.66929 574 ft 2 kts 222°
2026-05-04 23:17 36.12621 -86.66928 574 ft 1 kts 222°
2026-05-04 23:20 36.12615 -86.66967 574 ft 9 kts 275°
2026-05-04 23:20 36.12651 -86.67035 571 ft 9 kts 309°
2026-05-04 23:21 36.12703 -86.67111 569 ft 18 kts 310°
2026-05-04 23:21 36.12786 -86.67229 569 ft 17 kts 314°
2026-05-04 23:21 36.12804 -86.67329 572 ft 12 kts 231°
2026-05-04 23:21 36.12720 -86.67427 575 ft 20 kts 218°
2026-05-04 23:22 36.12599 -86.67513 576 ft 19 kts 212°
2026-05-04 23:22 36.12506 -86.67618 579 ft 17 kts 223°
2026-05-04 23:22 36.12412 -86.67686 582 ft 15 kts 199°
2026-05-04 23:22 36.12359 -86.67770 578 ft 13 kts 273°
2026-05-04 23:23 36.12382 -86.67853 579 ft 0 kts 290°
2026-05-04 23:23 36.12382 -86.67854 579 ft 0 kts 290°
2026-05-04 23:23 36.12382 -86.67855 579 ft 1 kts 290°
2026-05-04 23:23 36.12401 -86.67920 579 ft 13 kts 288°
2026-05-04 23:24 36.12367 -86.67985 576 ft 0 kts 197°
2026-05-04 23:24 36.12262 -86.68025 574 ft 49 kts 197°
2026-05-04 23:24 36.11722 -86.68243 581 ft 111 kts 198°
2026-05-04 23:25 36.10828 -86.68611 610 ft 155 kts 199°
2026-05-04 23:25 36.09801 -86.69018 1236 ft 154 kts 200°
2026-05-04 23:25 36.08804 -86.69424 1897 ft 148 kts 199°
2026-05-04 23:25 36.07806 -86.69804 2279 ft 154 kts 199°
2026-05-04 23:26 36.06707 -86.70219 2448 ft 176 kts 199°
2026-05-04 23:26 36.05476 -86.70680 2581 ft 194 kts 198°
2026-05-04 23:26 36.04125 -86.71183 2715 ft 214 kts 198°
2026-05-04 23:26 36.02650 -86.71735 2978 ft 227 kts 198°
2026-05-04 23:27 36.01126 -86.72305 3477 ft 230 kts 198°
2026-05-04 23:27 35.99550 -86.72893 3845 ft 245 kts 199°